| time (UTC) | temp F | wind direction | speed MPH | gust MPH | rain 1hr in | rain 24hr in | rain mn in | humidity % | barometer mb |
| 20260831071545 | 46 | 308 | 4.0 | 6.0 | 0.00 | 0.07 | 0.00 | 61 | 1014.6 |
| 20260831070040 | 45 | 298 | 5.0 | 8.0 | 0.00 | 0.07 | 0.00 | 62 | 1014.5 |
| 20260831064536 | 47 | 320 | 4.0 | 6.0 | 0.00 | 0.07 | 0.00 | 58 | 1014.5 |
| 20260831063033 | 47 | 305 | 3.0 | 6.0 | 0.00 | 0.07 | 0.00 | 57 | 1014.4 |
| 20260831061532 | 49 | 336 | 4.0 | 6.0 | 0.00 | 0.07 | 0.00 | 53 | 1014.4 |
| 20260831060027 | 49 | 318 | 5.0 | 9.0 | 0.00 | 0.07 | 0.00 | 52 | 1014.2 |
| 20260831054526 | 50 | 324 | 6.0 | 11.0 | 0.00 | 0.07 | 0.07 | 52 | 1014.2 |
| 20260831053029 | 50 | 304 | 7.0 | 11.0 | 0.00 | 0.07 | 0.07 | 53 | 1014.0 |
| 20260831051522 | 49 | 301 | 5.0 | 12.0 | 0.00 | 0.07 | 0.07 | 54 | 1013.8 |
| 20260831050027 | 47 | 302 | 4.0 | 6.0 | 0.00 | 0.07 | 0.07 | 58 | 1013.8 |
| 20260831044521 | 48 | 300 | 4.0 | 5.0 | 0.00 | 0.07 | 0.07 | 56 | 1013.6 |
| 20260831043019 | 48 | 296 | 3.0 | 6.0 | 0.00 | 0.07 | 0.07 | 55 | 1013.4 |
| 20260831041516 | 49 | 299 | 2.0 | 5.0 | 0.00 | 0.07 | 0.07 | 54 | 1013.1 |
| 20260831040015 | 50 | 278 | 3.0 | 5.0 | 0.00 | 0.07 | 0.07 | 53 | 1012.8 |
| 20260831034515 | 52 | 283 | 2.0 | 4.0 | 0.00 | 0.07 | 0.07 | 47 | 1012.6 |
| 20260831033012 | 54 | 223 | 1.0 | 4.0 | 0.00 | 0.07 | 0.07 | 43 | 1012.4 |
| 20260831031509 | 54 | 246 | 2.0 | 11.0 | 0.00 | 0.07 | 0.07 | 43 | 1012.2 |
| 20260831030011 | 54 | 290 | 6.0 | 10.0 | 0.00 | 0.07 | 0.07 | 43 | 1012.0 |
| 20260831024508 | 53 | 300 | 4.0 | 6.0 | 0.00 | 0.24 | 0.07 | 44 | 1011.7 |
| 20260831023005 | 55 | 312 | 3.0 | 5.0 | 0.00 | 0.24 | 0.07 | 44 | 1011.4 |
| 20260831021510 | 57 | 298 | 2.0 | 5.0 | 0.00 | 0.24 | 0.07 | 40 | 1011.4 |
| 20260831020007 | 59 | 340 | 2.0 | 10.0 | 0.00 | 0.24 | 0.07 | 35 | 1011.1 |
| 20260831014507 | 60 | 300 | 1.0 | 5.0 | 0.00 | 0.26 | 0.07 | 32 | 1011.3 |
| 20260831013003 | 61 | 296 | 7.0 | 11.0 | 0.00 | 0.26 | 0.07 | 31 | 1011.3 |
| 20260831011502 | 62 | 260 | 5.0 | 16.0 | 0.00 | 0.26 | 0.07 | 28 | 1011.0 |
| 20260831010001 | 63 | 258 | 11.0 | 21.0 | 0.00 | 0.26 | 0.07 | 27 | 1011.1 |
| 20260831004601 | 63 | 248 | 6.0 | 21.0 | 0.00 | 0.26 | 0.07 | 28 | 1011.0 |
| 20260831003106 | 63 | 251 | 11.0 | 17.0 | 0.00 | 0.26 | 0.07 | 27 | 1011.1 |
| 20260831001558 | 63 | 275 | 13.0 | 21.0 | 0.00 | 0.26 | 0.07 | 27 | 1011.0 |
| 20260831000058 | 63 | 253 | 12.0 | 21.0 | 0.00 | 0.26 | 0.07 | 28 | 1010.9 |
| 20260830234557 | 63 | 276 | 10.0 | 21.0 | 0.00 | 0.26 | 0.07 | 30 | 1011.0 |
| 20260830233104 | 63 | 294 | 12.0 | 19.0 | 0.00 | 0.26 | 0.07 | 30 | 1011.0 |
| 20260830231556 | 63 | 289 | 15.0 | 22.0 | 0.00 | 0.26 | 0.07 | 30 | 1010.9 |
| 20260830230054 | 63 | 249 | 6.0 | 22.0 | 0.00 | 0.26 | 0.07 | 28 | 1010.9 |
| 20260830224557 | 63 | 255 | 10.0 | 16.0 | 0.00 | 0.26 | 0.07 | 31 | 1011.1 |
| 20260830223109 | 63 | 278 | 12.0 | 23.0 | 0.00 | 0.26 | 0.07 | 31 | 1011.2 |
| 20260830221552 | 62 | 214 | 12.0 | 27.0 | 0.00 | 0.26 | 0.07 | 30 | 1011.2 |
| 20260830220051 | 63 | 221 | 13.0 | 20.0 | 0.00 | 0.26 | 0.07 | 30 | 1011.1 |
| 20260830214601 | 64 | 153 | 11.0 | 21.0 | 0.00 | 0.26 | 0.07 | 27 | 1011.2 |
| 20260830213048 | 64 | 201 | 15.0 | 25.0 | 0.00 | 0.26 | 0.07 | 27 | 1011.2 |
| 20260830211539 | 62 | 280 | 10.0 | 23.0 | 0.00 | 0.26 | 0.07 | 30 | 1011.1 |
| 20260830210039 | 63 | 266 | 16.0 | 27.0 | 0.00 | 0.26 | 0.07 | 29 | 1011.3 |
| 20260830204538 | 62 | 219 | 7.0 | 23.0 | 0.00 | 0.35 | 0.07 | 31 | 1011.2 |
| 20260830203035 | 61 | 277 | 16.0 | 29.0 | 0.00 | 0.35 | 0.07 | 30 | 1011.3 |
| 20260830201534 | 61 | 205 | 14.0 | 29.0 | 0.00 | 0.35 | 0.07 | 28 | 1011.4 |
| 20260830200042 | 60 | 278 | 4.0 | 20.0 | 0.00 | 0.35 | 0.07 | 34 | 1011.4 |
| 20260830194527 | 59 | 224 | 10.0 | 19.0 | 0.00 | 0.40 | 0.07 | 34 | 1011.4 |
| 20260830193026 | 58 | 268 | 11.0 | 25.0 | 0.00 | 0.40 | 0.07 | 33 | 1011.5 |
| 20260830191524 | 57 | 298 | 5.0 | 19.0 | 0.00 | 0.40 | 0.07 | 35 | 1011.6 |
| 20260830190041 | 57 | 312 | 11.0 | 22.0 | 0.00 | 0.40 | 0.07 | 36 | 1011.5 |
| 20260830184521 | 58 | 279 | 13.0 | 22.0 | 0.00 | 0.40 | 0.07 | 37 | 1011.6 |
| 20260830183019 | 57 | 256 | 12.0 | 16.0 | 0.00 | 0.40 | 0.07 | 36 | 1011.5 |
| 20260830181517 | 56 | 270 | 8.0 | 16.0 | 0.00 | 0.40 | 0.07 | 37 | 1011.6 |
| 20260830180014 | 56 | 227 | 8.0 | 14.0 | 0.00 | 0.40 | 0.07 | 35 | 1011.6 |
| 20260830174516 | 55 | 246 | 13.0 | 24.0 | 0.00 | 0.40 | 0.07 | 36 | 1011.7 |
| 20260830173009 | 55 | 314 | 8.0 | 15.0 | 0.00 | 0.40 | 0.07 | 43 | 1011.6 |
| 20260830171507 | 54 | 318 | 6.0 | 22.0 | 0.00 | 0.40 | 0.07 | 44 | 1011.8 |
| 20260830170004 | 53 | 266 | 12.0 | 19.0 | 0.00 | 0.40 | 0.07 | 46 | 1011.5 |
| 20260830164502 | 53 | 280 | 13.0 | 22.0 | 0.00 | 0.40 | 0.07 | 46 | 1011.4 |
| 20260830163104 | 53 | 258 | 15.0 | 26.0 | 0.00 | 0.40 | 0.07 | 47 | 1011.5 |
| 20260830161558 | 52 | 239 | 14.0 | 19.0 | 0.00 | 0.40 | 0.07 | 50 | 1011.3 |
| 20260830160056 | 51 | 248 | 10.0 | 19.0 | 0.00 | 0.40 | 0.07 | 54 | 1011.3 |
| 20260830154554 | 50 | 269 | 14.0 | 22.0 | 0.00 | 0.40 | 0.07 | 57 | 1011.2 |
| 20260830153052 | 50 | 303 | 8.0 | 12.0 | 0.00 | 0.40 | 0.07 | 59 | 1011.3 |
| 20260830151554 | 49 | 275 | 5.0 | 13.0 | 0.00 | 0.40 | 0.07 | 60 | 1011.4 |
| 20260830150053 | 48 | 271 | 8.0 | 15.0 | 0.00 | 0.40 | 0.07 | 62 | 1011.4 |
| 20260830144549 | 48 | 274 | 7.0 | 13.0 | 0.00 | 0.40 | 0.07 | 63 | 1011.3 |
| 20260830143058 | 47 | 296 | 5.0 | 14.0 | 0.00 | 0.40 | 0.07 | 65 | 1011.2 |
| 20260830141548 | 46 | 278 | 11.0 | 16.0 | 0.00 | 0.40 | 0.07 | 66 | 1011.1 |
| 20260830140045 | 44 | 290 | 10.0 | 16.0 | 0.00 | 0.40 | 0.07 | 69 | 1011.0 |
| 20260830134545 | 44 | 285 | 6.0 | 10.0 | 0.00 | 0.40 | 0.07 | 69 | 1011.0 |
| 20260830133041 | 44 | 296 | 9.0 | 14.0 | 0.00 | 0.40 | 0.07 | 70 | 1010.7 |
| 20260830131541 | 43 | 281 | 7.0 | 10.0 | 0.00 | 0.40 | 0.07 | 73 | 1010.6 |
| 20260830130042 | 41 | 276 | 4.0 | 8.0 | 0.00 | 0.40 | 0.07 | 76 | 1010.3 |
| 20260830124536 | 41 | 318 | 4.0 | 6.0 | 0.00 | 0.40 | 0.07 | 79 | 1010.3 |
| 20260830123033 | 43 | 321 | 5.0 | 9.0 | 0.00 | 0.40 | 0.07 | 75 | 1010.1 |
| 20260830121537 | 43 | 298 | 9.0 | 15.0 | 0.00 | 0.40 | 0.07 | 74 | 1009.9 |
| 20260830120030 | 43 | 308 | 8.0 | 12.0 | 0.00 | 0.40 | 0.07 | 75 | 1009.9 |
| 20260830114528 | 44 | 316 | 8.0 | 12.0 | 0.00 | 0.40 | 0.07 | 75 | 1009.9 |
| 20260830113028 | 44 | 295 | 10.0 | 14.0 | 0.00 | 0.40 | 0.07 | 79 | 1009.7 |
| 20260830111525 | 43 | 287 | 11.0 | 15.0 | 0.00 | 0.40 | 0.07 | 84 | 1009.5 |
| 20260830110024 | 43 | 289 | 10.0 | 12.0 | 0.00 | 0.40 | 0.07 | 87 | 1009.5 |
| 20260830104549 | 43 | 281 | 8.0 | 9.0 | 0.00 | 0.40 | 0.07 | 88 | 1009.5 |
| 20260830103019 | 44 | 292 | 9.0 | 12.0 | 0.00 | 0.40 | 0.07 | 88 | 1009.4 |
| 20260830101515 | 45 | 309 | 6.0 | 12.0 | 0.00 | 0.40 | 0.07 | 85 | 1009.3 |
| 20260830100013 | 46 | 297 | 13.0 | 20.0 | 0.00 | 0.40 | 0.07 | 84 | 1008.8 |
| 20260830094512 | 46 | 302 | 16.0 | 20.0 | 0.00 | 0.40 | 0.07 | 87 | 1008.4 |
| 20260830093013 | 46 | 287 | 13.0 | 16.0 | 0.06 | 0.40 | 0.07 | 89 | 1008.4 |
| 20260830091507 | 46 | 292 | 9.0 | 11.0 | 0.07 | 0.40 | 0.07 | 89 | 1008.9 |
| 20260830090005 | 47 | 96 | 0.0 | 11.0 | 0.07 | 0.40 | 0.07 | 86 | 1008.9 |
| 20260830084502 | 48 | 328 | 4.0 | 16.0 | 0.07 | 0.40 | 0.07 | 81 | 1008.4 |
| 20260830083005 | 50 | 262 | 13.0 | 32.0 | 0.01 | 0.34 | 0.01 | 75 | 1009.6 |
| 20260830081608 | 51 | 291 | 14.0 | 28.0 | 0.00 | 0.33 | 0.00 | 74 | 1008.7 |
| 20260830080100 | 51 | 271 | 16.0 | 21.0 | 0.00 | 0.33 | 0.00 | 78 | 1009.1 |
| 20260830074554 | 49 | 271 | 9.0 | 14.0 | 0.00 | 0.33 | 0.00 | 85 | 1008.3 |
| 20260830073059 | 48 | 294 | 6.0 | 9.0 | 0.00 | 0.33 | 0.00 | 88 | 1007.3 |